When you browse on this site, cookies collect data to enhance your experience and personalize the content and advertising you see.
Visit our Privacy Policy to learn more. By continuing to use the site, you agree to this use of cookies and data.
  • In Portugal
  • List of Countries
  • For 7 days
  • Water Temperature
  • Weather Map
  • Weather Widgets
  • user-avatar
    Login

    Hourly Weather Logrono

    Today, 8 December, Sunday

    Time Temperature Precipitation Wind Pressure Humidity
    00:00 +8°C° 0 mm 1 mps 731 mmHg 80%
    01:00 +8°C° 0 mm 1 mps 730 mmHg 81%
    02:00 +7°C° 0 mm 2 mps 730 mmHg 81%
    03:00 +7°C° 0 mm 2 mps 730 mmHg 81%
    04:00 +7°C° 0 mm 2 mps 730 mmHg 81%
    05:00 +7°C° 0 mm 2 mps 730 mmHg 82%
    06:00 +7°C° 0 mm 1 mps 730 mmHg 82%
    07:00 +7°C° 0 mm 2 mps 730 mmHg 81%
    08:00 +8°C° 0 mm 2 mps 730 mmHg 79%
    09:00 +9°C° 0 mm 2 mps 730 mmHg 77%
    10:00 +10°C° 0 mm 2 mps 730 mmHg 72%
    11:00 +13°C° 0 mm 2 mps 730 mmHg 67%
    12:00 +14°C° 0 mm 2 mps 730 mmHg 62%
    13:00 +13°C° 0.6 mm 2 mps 729 mmHg 70%
    14:00 +13°C° 0.6 mm 2 mps 729 mmHg 79%
    15:00 +12°C° 0.6 mm 2 mps 729 mmHg 87%
    16:00 +12°C° 0.9 mm 2 mps 729 mmHg 88%
    17:00 +10°C° 0.9 mm 2 mps 730 mmHg 90%
    18:00 +10°C° 0.9 mm 2 mps 730 mmHg 91%
    19:00 +10°C° 0 mm 2 mps 731 mmHg 92%
    20:00 +9°C° 0 mm 2 mps 731 mmHg 92%
    21:00 +9°C° 0 mm 2 mps 731 mmHg 92%
    22:00 +8°C° 0 mm 2 mps 731 mmHg 92%
    23:00 +8°C° 0 mm 2 mps 732 mmHg 91%

    Tomorrow, 9 December, Monday

    Time Temperature Precipitation Wind Pressure Humidity
    00:00 +8°C° 0 mm 2 mps 732 mmHg 91%
    01:00 +7°C° 0 mm 2 mps 732 mmHg 88%
    02:00 +7°C° 0 mm 2 mps 732 mmHg 84%
    03:00 +6°C° 0 mm 2 mps 732 mmHg 81%
    04:00 +6°C° 0 mm 2 mps 732 mmHg 83%
    05:00 +6°C° 0 mm 2 mps 733 mmHg 85%
    06:00 +6°C° 0 mm 2 mps 733 mmHg 88%
    07:00 +6°C° 0 mm 2 mps 733 mmHg 87%
    08:00 +7°C° 0 mm 3 mps 734 mmHg 85%
    09:00 +7°C° 0 mm 4 mps 734 mmHg 84%
    10:00 +7°C° 0 mm 4 mps 735 mmHg 80%
    11:00 +8°C° 0 mm 5 mps 735 mmHg 76%
    12:00 +9°C° 0 mm 5 mps 735 mmHg 72%
    13:00 +9°C° 0 mm 5 mps 735 mmHg 72%
    14:00 +9°C° 0 mm 5 mps 735 mmHg 73%
    15:00 +9°C° 0 mm 5 mps 735 mmHg 73%
    16:00 +8°C° 0 mm 4 mps 735 mmHg 77%
    17:00 +8°C° 0 mm 3 mps 735 mmHg 81%
    18:00 +7°C° 0 mm 2 mps 735 mmHg 85%
    19:00 +7°C° 0 mm 2 mps 736 mmHg 86%
    20:00 +6°C° 0 mm 2 mps 736 mmHg 86%
    21:00 +6°C° 0 mm 2 mps 736 mmHg 86%
    22:00 +6°C° 0 mm 2 mps 736 mmHg 87%
    23:00 +5°C° 0 mm 2 mps 736 mmHg 88%

    Day after tomorrow, 10 December, Tuesday

    Time Temperature Precipitation Wind Pressure Humidity
    00:00 +5°C° 0 mm 2 mps 736 mmHg 88%
    01:00 +5°C° 0 mm 2 mps 735 mmHg 87%
    02:00 +5°C° 0 mm 2 mps 735 mmHg 86%
    03:00 +5°C° 0 mm 2 mps 735 mmHg 85%
    04:00 +5°C° 0 mm 2 mps 734 mmHg 83%
    05:00 +4°C° 0 mm 2 mps 734 mmHg 80%
    06:00 +4°C° 0 mm 2 mps 733 mmHg 78%
    07:00 +5°C° 0 mm 2 mps 733 mmHg 73%
    08:00 +6°C° 0 mm 2 mps 733 mmHg 68%
    09:00 +7°C° 0 mm 2 mps 733 mmHg 63%
    10:00 +9°C° 0 mm 2 mps 733 mmHg 58%
    11:00 +12°C° 0 mm 2 mps 732 mmHg 53%
    12:00 +14°C° 0 mm 2 mps 732 mmHg 47%
    13:00 +14°C° 0 mm 2 mps 731 mmHg 50%
    14:00 +14°C° 0 mm 2 mps 730 mmHg 52%
    15:00 +14°C° 0 mm 2 mps 730 mmHg 55%
    16:00 +13°C° 0 mm 2 mps 730 mmHg 56%
    17:00 +10°C° 0 mm 2 mps 730 mmHg 57%
    18:00 +9°C° 0 mm 2 mps 729 mmHg 57%
    19:00 +9°C° 0 mm 2 mps 729 mmHg 58%
    20:00 +8°C° 0 mm 2 mps 729 mmHg 58%
    21:00 +8°C° 0 mm 2 mps 729 mmHg 59%
    22:00 +8°C° 0 mm 2 mps 729 mmHg 58%
    23:00 +7°C° 0 mm 2 mps 729 mmHg 58%

    11 December, Wednesday

    Time Temperature Precipitation Wind Pressure Humidity
    00:00 +7°C° 0 mm 2 mps 729 mmHg 57%
    01:00 +7°C° 0 mm 2 mps 729 mmHg 58%
    02:00 +6°C° 0 mm 2 mps 729 mmHg 59%
    03:00 +6°C° 0 mm 2 mps 729 mmHg 60%
    04:00 +6°C° 0 mm 2 mps 729 mmHg 61%
    05:00 +6°C° 0 mm 2 mps 729 mmHg 62%
    06:00 +6°C° 0 mm 2 mps 729 mmHg 62%
    07:00 +7°C° 0.1 mm 2 mps 730 mmHg 66%
    08:00 +7°C° 0.1 mm 2 mps 730 mmHg 71%
    09:00 +7°C° 0.1 mm 2 mps 731 mmHg 75%
    10:00 +7°C° 0.2 mm 2 mps 731 mmHg 79%
    11:00 +7°C° 0.2 mm 2 mps 731 mmHg 83%
    12:00 +7°C° 0.2 mm 2 mps 731 mmHg 86%
    13:00 +7°C° 0.1 mm 3 mps 731 mmHg 84%
    14:00 +7°C° 0.1 mm 3 mps 731 mmHg 82%
    15:00 +8°C° 0.1 mm 3 mps 731 mmHg 80%
    16:00 +7°C° 0 mm 2 mps 731 mmHg 82%
    17:00 +6°C° 0 mm 2 mps 731 mmHg 84%
    18:00 +7°C° 0 mm 1 mps 732 mmHg 86%
    19:00 +6°C° 0 mm 1 mps 732 mmHg 87%
    20:00 +6°C° 0 mm 1 mps 732 mmHg 88%
    21:00 +4°C° 0 mm 2 mps 732 mmHg 89%
    22:00 +4°C° 0 mm 2 mps 732 mmHg 88%
    23:00 +4°C° 0 mm 2 mps 732 mmHg 86%

    12 December, Thursday

    Time Temperature Precipitation Wind Pressure Humidity
    00:00 +4°C° 0 mm 2 mps 732 mmHg 84%
    01:00 +4°C° 0 mm 2 mps 732 mmHg 84%
    02:00 +4°C° 0 mm 2 mps 732 mmHg 84%
    03:00 +4°C° 0 mm 2 mps 732 mmHg 84%
    04:00 +4°C° 0 mm 2 mps 732 mmHg 82%
    05:00 +4°C° 0 mm 2 mps 732 mmHg 81%
    06:00 +4°C° 0 mm 2 mps 732 mmHg 79%
    07:00 +3°C° 0 mm 3 mps 732 mmHg 78%
    08:00 +4°C° 0 mm 3 mps 732 mmHg 77%
    09:00 +4°C° 0 mm 3 mps 733 mmHg 76%
    10:00 +5°C° 0 mm 3 mps 732 mmHg 72%
    11:00 +8°C° 0 mm 3 mps 732 mmHg 68%
    12:00 +8°C° 0 mm 4 mps 731 mmHg 65%
    13:00 +8°C° 0 mm 4 mps 731 mmHg 65%
    14:00 +8°C° 0 mm 4 mps 731 mmHg 65%
    15:00 +8°C° 0 mm 4 mps 730 mmHg 65%
    16:00 +7°C° 0 mm 4 mps 730 mmHg 69%
    17:00 +7°C° 0 mm 3 mps 730 mmHg 73%
    18:00 +6°C° 0 mm 2 mps 730 mmHg 77%
    19:00 +6°C° 0 mm 2 mps 730 mmHg 77%
    20:00 +6°C° 0 mm 2 mps 730 mmHg 78%
    21:00 +6°C° 0 mm 2 mps 730 mmHg 78%
    22:00 +6°C° 0 mm 2 mps 730 mmHg 77%
    23:00 +7°C° 0 mm 2 mps 730 mmHg 77%

    13 December, Friday

    Time Temperature Precipitation Wind Pressure Humidity
    00:00 +7°C° 0 mm 2 mps 730 mmHg 77%
    01:00 +8°C° 0 mm 2 mps 730 mmHg 79%
    02:00 +8°C° 0 mm 3 mps 730 mmHg 81%
    03:00 +8°C° 0 mm 3 mps 730 mmHg 83%
    04:00 +8°C° 0 mm 3 mps 730 mmHg 83%
    05:00 +9°C° 0 mm 3 mps 730 mmHg 83%
    06:00 +9°C° 0 mm 3 mps 730 mmHg 83%
    07:00 +9°C° 0 mm 3 mps 730 mmHg 83%
    08:00 +9°C° 0 mm 3 mps 730 mmHg 83%
    09:00 +10°C° 0 mm 3 mps 731 mmHg 82%
    10:00 +11°C° 0 mm 3 mps 731 mmHg 77%
    11:00 +12°C° 0 mm 4 mps 731 mmHg 72%
    12:00 +13°C° 0 mm 4 mps 731 mmHg 67%
    13:00 +13°C° 0 mm 4 mps 730 mmHg 68%
    14:00 +13°C° 0 mm 4 mps 730 mmHg 68%
    15:00 +13°C° 0 mm 3 mps 730 mmHg 69%
    16:00 +12°C° 0 mm 3 mps 730 mmHg 73%
    17:00 +11°C° 0 mm 3 mps 730 mmHg 77%
    18:00 +10°C° 0 mm 3 mps 730 mmHg 81%
    19:00 +9°C° 0 mm 2 mps 731 mmHg 82%
    20:00 +9°C° 0 mm 2 mps 731 mmHg 84%
    21:00 +9°C° 0 mm 2 mps 731 mmHg 85%
    22:00 +8°C° 0 mm 2 mps 731 mmHg 86%
    23:00 +8°C° 0 mm 2 mps 731 mmHg 86%
    Show more